Location: Newark
(25.6108°S, 54.5803°W)
Time: 13:28:44
(UTC+00:00)

Courier 1B Rocket - Pass Details

Date: 01 November 2020
Orbit: 920 x 1202 km, 28.2° (Epoch: 01 December)

Event Time Altitude Azimuth Distance (km) Brightness Sun altitude
Rises 07:19:19 0° 300° (WNW) 4,077 - -19.6°
Reaches altitude 10° 07:22:15 10° 303° (WNW) 3,097 - -19.0°
Exits shadow 07:25:27 27° 311° (NW) 2,089 6.1 -18.4°
Maximum altitude 07:29:49 61° 21° (NNE) 1,283 5.5 -17.5°
Drops below altitude 10° 07:36:58 10° 99° (E) 2,934 8.7 -16.1°
Sets 07:39:40 0° 102° (ESE) 3,850 9.8 -15.5°
